Davenport, IA

2:15 AM CDT on April 24, 2018 (GMT -0500)
Davenport Municipal

Weather History for KDVN - March, 2011

Change the Weather History Date:

Monday, March 7, 2011

  Actual Average Record
Temperature  
Mean Temperature 33 °F 34 °F  
Max Temperature 36 °F 43 °F 67 °F (2012)
Min Temperature 29 °F 25 °F 0 °F (1999)
Degree Days  
Heating Degree Days 32 31  
Month to date heating degree days 218 226  
Since 1 July heating degree days 5415 5251  
Cooling Degree Days 0 0  
Month to date cooling degree days 0 0  
Year to date cooling degree days 0 0  
Moisture  
Dew Point 28 °F    
Average Humidity 80    
Maximum Humidity 85    
Minimum Humidity 75    
Precipitation  
Precipitation T in 0.07 in 1.60 in (1973)
Month to date precipitation 0.65 0.51  
Year to date precipitation 3.13 3.04  
Snow  
Snow T in - - ()
Month to date snowfall T  
Since 1 July snowfall 51.4  
Snow Depth 0.00 in    
Sea Level Pressure  
Sea Level Pressure 30.18 in    
Wind  
Wind Speed 8 mph (ESE)    
Max Wind Speed 13 mph    
Max Gust Speed 15 mph    
Visibility 6 miles    
Events Snow    
T = Trace of Precipitation, MM = Missing Value Source: NWS Daily Summary

Daily Weather History Graph

Daily Weather History Graph

Search for Another Location

Airport or City:

Astronomy

Mar. 07, 2011 Rise Set
Actual Time 6:27 AM CST 5:59 PM CST
Civil Twilight 6:00 AM CST 6:27 PM CST
Nautical Twilight 5:28 AM CST 6:59 PM CST
Astronomical Twilight 4:55 AM CST 7:31 PM CST
Moon 7:14 AM CST (3/7) 9:04 PM CST (3/7)
Length of Visible Light 12h 27m
Length of Day
11h 31m
Waxing Crescent, 7% of the Moon is Illuminated
Mar 7
Waxing Crescent
Mar 12
First Quarter
Mar 19
Full
Mar 26
Last Quarter
Apr 3
New

Hourly Weather History & Observations

Time (CST) Temp. Windchill Dew Point Humidity Pressure Visibility Wind Dir Wind Speed Gust Speed Precip Events Conditions
12:52 AM 30.0 °F 21.1 °F 24.1 °F 79% 30.20 in 9.0 mi SSE 10.4 mph - N/A   Mostly Cloudy
1:52 AM 30.0 °F 23.2 °F 24.1 °F 79% 30.21 in 9.0 mi SSE 6.9 mph - N/A   Mostly Cloudy
2:30 AM 30.2 °F 21.9 °F 24.8 °F 80% 30.17 in 9.0 mi SSE 9.2 mph - N/A   Overcast
2:52 AM 30.0 °F 21.1 °F 25.0 °F 82% 30.19 in 9.0 mi SSE 10.4 mph - N/A   Overcast
3:52 AM 30.0 °F 21.7 °F 25.0 °F 82% 30.19 in 8.0 mi SSE 9.2 mph - N/A   Overcast
4:52 AM 30.0 °F 21.7 °F 25.0 °F 82% 30.20 in 10.0 mi SSE 9.2 mph - N/A   Overcast
5:52 AM 30.9 °F 24.3 °F 25.0 °F 79% 30.19 in 9.0 mi SE 6.9 mph - N/A   Overcast
6:52 AM 30.9 °F 22.8 °F 26.1 °F 82% 30.21 in 9.0 mi South 9.2 mph - N/A   Overcast
7:52 AM 32.0 °F 26.4 °F 27.0 °F 82% 30.21 in 7.0 mi SSE 5.8 mph - N/A   Overcast
8:52 AM 32.0 °F 24.8 °F 27.0 °F 82% 30.21 in 6.0 mi South 8.1 mph - N/A   Haze
9:52 AM 33.1 °F 25.5 °F 28.0 °F 82% 30.20 in 7.0 mi South 9.2 mph - N/A   Overcast
10:52 AM 33.1 °F 26.1 °F 28.0 °F 82% 30.20 in 6.0 mi South 8.1 mph - N/A   Haze
11:52 AM 34.0 °F 28.8 °F 28.9 °F 82% 30.19 in 7.0 mi SSE 5.8 mph - N/A   Overcast
12:52 PM 34.0 °F 28.8 °F 28.0 °F 79% 30.17 in 7.0 mi SE 5.8 mph - N/A   Overcast
1:52 PM 35.1 °F 28.6 °F 28.9 °F 78% 30.16 in 7.0 mi SSE 8.1 mph - N/A   Overcast
2:52 PM 36.0 °F 29.6 °F 28.9 °F 76% 30.17 in 8.0 mi SSE 8.1 mph - N/A   Overcast
3:52 PM 36.0 °F 30.3 °F 28.9 °F 76% 30.16 in 7.0 mi ESE 6.9 mph - N/A   Overcast
4:12 PM 35.6 °F 29.9 °F 28.4 °F 75% 30.12 in 7.0 mi East 6.9 mph - N/A   Overcast
4:52 PM 35.1 °F 26.9 °F 28.9 °F 78% 30.14 in 4.0 mi East 11.5 mph - 0.00 in Snow Light Snow
5:52 PM 34.0 °F 26.6 °F 28.9 °F 82% 30.14 in 5.0 mi East 9.2 mph - 0.00 in   Haze
6:52 PM 33.1 °F 26.1 °F 28.0 °F 82% 30.15 in 5.0 mi East 8.1 mph - N/A   Haze
7:52 PM 32.0 °F 24.8 °F 28.0 °F 85% 30.16 in 4.0 mi East 8.1 mph - N/A   Mostly Cloudy
8:18 PM 32.0 °F 24.8 °F 28.4 °F 87% 30.14 in 5.0 mi East 8.1 mph - N/A   Overcast
8:52 PM 32.0 °F 25.6 °F 28.9 °F 88% 30.18 in 4.0 mi East 6.9 mph - N/A   Overcast
8:59 PM 32.0 °F 24.8 °F 28.4 °F 87% 30.15 in 4.0 mi ENE 8.1 mph - N/A   Overcast
9:42 PM 32.0 °F 24.2 °F 28.4 °F 87% 30.16 in 3.0 mi ENE 9.2 mph - N/A   Overcast
9:52 PM 32.0 °F 24.2 °F 28.9 °F 88% 30.19 in 3.0 mi ENE 9.2 mph - N/A   Overcast
10:22 PM 30.2 °F 22.6 °F 28.4 °F 93% 30.16 in 3.0 mi ENE 8.1 mph - N/A   Mostly Cloudy
10:47 PM 32.0 °F 24.2 °F 28.4 °F 87% 30.17 in 3.0 mi East 9.2 mph - N/A   Mostly Cloudy
10:52 PM 32.0 °F 24.8 °F 28.9 °F 88% 30.19 in 3.0 mi East 8.1 mph - N/A   Mostly Cloudy
11:04 PM 32.0 °F 25.6 °F 28.4 °F 87% 30.17 in 3.0 mi East 6.9 mph - N/A   Overcast
11:13 PM 32.0 °F 25.6 °F 28.4 °F 87% 30.17 in 2.0 mi East 6.9 mph - N/A   Overcast
11:52 PM 32.0 °F 24.8 °F 28.9 °F 88% 30.19 in 3.0 mi East 8.1 mph - N/A   Overcast